Location: Albany
(35.0000°S, 118.0000°E)
Time: 19:25:47
(UTC-05:00)

Vanguard 3 - Visible Passes

Search period start: 26 February 2015 00:00
Search period end: 08 March 2015 00:00
Orbit: 510 x 3273 km, 33.3° (Epoch: 23 February)

Date Brightness Start Highest point End Pass type
(mag) Time Alt. Az. Time Alt. Az. Time Alt. Az.
26 Feb 10.0 07:20:20 10° NW 07:36:16 60° NNE 07:55:47 10° ESE visible
26 Feb 9.8 09:34:06 10° WNW 09:53:31 83° N 10:11:51 10° E visible
26 Feb 9.7 11:50:53 10° W 12:15:53 59° ENE 12:25:57 10° ENE visible
26 Feb 9.5 14:09:17 10° WSW 14:26:32 49° NW 14:37:20 10° NE visible
26 Feb 10.2 16:31:57 10° W 16:38:29 14° NW 16:42:51 10° NNW visible
27 Feb 10.1 06:08:19 10° NNW 06:21:41 45° NE 06:39:58 10° E visible
27 Feb 9.9 08:20:05 10° WNW 08:37:40 76° NNE 08:51:20 27° E visible
27 Feb 9.7 10:35:28 10° W 10:55:39 85° N 11:12:41 10° E visible
27 Feb 9.5 12:52:58 10° W 13:14:51 61° N 13:25:37 10° NE visible
27 Feb 9.8 15:19:46 22° WNW 15:26:01 29° NW 15:34:45 10° N visible
28 Feb 9.9 07:07:03 10° NW 07:22:19 64° NNE 07:41:55 11° E visible
28 Feb 9.8 09:20:46 10° W 09:39:40 84° N 09:46:31 54° E visible
28 Feb 10.1 11:37:11 10° W 12:08:36 27° ENE 12:13:02 10° ENE visible
28 Feb 9.6 13:55:26 10° WSW 14:13:30 45° NNW 14:24:15 10° NNE visible
28 Feb 10.4 16:20:02 10° WNW 16:24:59 12° NW 16:28:03 10° NW visible
01 Mar 10.0 05:54:58 10° NW 06:07:47 49° NE 06:26:15 10° ESE visible
01 Mar 9.9 08:06:53 10° WNW 08:23:47 79° NNE 08:37:09 29° E visible
01 Mar 9.8 10:22:00 10° W 11:02:07 - ENE 10:41:46 84° N visible
01 Mar 10.1 12:39:09 10° WSW 13:06:58 33° NE 13:12:36 10° NE visible
01 Mar 10.0 15:11:51 25° NW 15:12:21 25° NW 15:21:15 10° N visible
02 Mar 9.8 06:53:54 10° NW 07:08:27 68° NNE 07:27:49 12° E visible
02 Mar 9.8 09:07:31 10° W 09:25:49 85° N 09:32:25 55° E visible
02 Mar 10.2 11:23:33 10° W 12:00:14 - ENE 11:37:01 52° W visible
02 Mar 10.1 14:05:05 30° N 14:05:05 30° N 14:11:00 10° NNE visible
03 Mar 9.9 05:41:49 10° NW 05:53:58 53° NNE 06:12:26 10° ESE visible
03 Mar 9.8 07:53:48 10° WNW 08:09:57 81° N 08:23:06 30° E visible
03 Mar 9.8 10:08:37 10° W 10:27:42 82° NNW 10:27:42 82° NNW visible
03 Mar 10.8 12:25:24 10° WSW 12:58:07 14° NE 12:59:23 10° NE visible
03 Mar 10.3 15:02:56 19° NNW 15:02:56 19° NNW 15:07:27 10° N visible
04 Mar 9.8 06:40:53 10° WNW 06:54:40 72° NNE 07:13:47 12° E visible
04 Mar 9.8 08:54:21 10° W 09:11:58 85° N 09:18:24 56° E visible
04 Mar 10.2 11:09:58 10° W 11:23:01 51° W 11:23:01 51° W visible
04 Mar 10.6 13:55:44 15° NNE 13:55:44 15° NNE 13:57:30 10° NNE visible
05 Mar 9.8 07:40:49 10° WNW 07:56:10 83° N 08:09:07 30° E visible
05 Mar 9.8 09:55:17 10° W 10:13:44 80° NNW 10:13:44 80° NNW visible
05 Mar 10.9 12:11:44 10° WSW 12:48:23 - NE 12:18:20 26° W visible
05 Mar 10.7 14:53:10 10° NNW 14:53:10 10° NNW 14:53:15 10° NNW visible
06 Mar 9.7 06:28:00 10° WNW 06:40:59 76° NNE 06:59:51 12° E visible
06 Mar 9.8 08:41:16 10° W 08:58:08 85° N 09:04:28 56° ENE visible
06 Mar 10.3 10:56:29 10° W 11:09:05 49° W 11:09:05 49° W visible
06 Mar11.113:45:37NNE13:45:37NNE13:13:42Wvisible
07 Mar 9.8 07:27:54 10° W 07:42:28 85° N 07:55:14 30° E visible
07 Mar 9.8 09:42:02 10° W 09:59:51 77° NNW 09:59:51 77° NNW visible
07 Mar 10.9 11:58:11 10° W 12:04:28 25° W 12:04:28 25° W visible
